Milwaukee, WI

9:42 PM CST on November 19, 2019 (GMT -0600)
Gen Mitchell International

Weather History for KMKE - September, 2019

Change the Weather History Date:

Sunday, September 15, 2019

  Actual Average Record
Temperature  
Mean Temperature 71 °F 64 °F  
Max Temperature 75 °F 72 °F 99 °F (1939)
Min Temperature 66 °F 55 °F 40 °F (2007)
Degree Days  
Heating Degree Days 0 4  
Month to date heating degree days 8 33  
Since 1 July heating degree days 10 59  
Cooling Degree Days 6 2  
Month to date cooling degree days 57 50  
Year to date cooling degree days 663 615  
Growing Degree Days 21 (Base 50)    
Moisture  
Dew Point 64 °F    
Average Humidity 81    
Maximum Humidity 93    
Minimum Humidity 73    
Precipitation  
Precipitation 0.01 in 0.11 in 2.98 in (1912)
Month to date precipitation 5.06 1.57  
Year to date precipitation 33.47 25.75  
Snow  
Snow 0.00 in 0.00 in 0.00 in (2018)
Month to date snowfall 0.0 0.0  
Since 1 July snowfall 0.0 0.0  
Since 1 September snowfall 0.0 0.0  
Snow Depth 0.00 in    
Sea Level Pressure  
Sea Level Pressure 30.02 in    
Wind  
Wind Speed 7 mph ()    
Max Wind Speed 16 mph    
Max Gust Speed 23 mph    
Visibility 9.0 miles    
Events Rain    
T = Trace of Precipitation, MM = Missing Value Source: Averaged Metar Reports

Daily Weather History Graph

Daily Weather History Graph

Search for Another Location

Airport or City:

Astronomy

Sep. 15, 2019 Rise Set
Actual Time 6:31 AM CDT 7:01 PM CDT
Civil Twilight 6:02 AM CDT 7:30 PM CDT
Nautical Twilight 5:28 AM CDT 8:03 PM CDT
Astronomical Twilight 4:54 AM CDT 8:38 PM CDT
Moon 8:08 PM CDT (9/15) 7:41 AM CDT (9/15)
Length of Visible Light 13h 27m
Length of Day
12h 30m
Full, 98% of the Moon is Illuminated
Sep 15
Full
Sep 21
Last Quarter
Sep 28
New
Oct 5
First Quarter
Oct 13
Full

Hourly Weather History & Observations

Time (CDT) Temp. Dew Point Humidity Pressure Visibility Wind Dir Wind Speed Gust Speed Precip Events Conditions
12:52 AM 68.0 °F 60.1 °F 76% 30.07 in 10.0 mi SSW 8.1 mph - N/A   Mostly Cloudy
1:52 AM 69.1 °F 60.1 °F 73% 30.04 in 10.0 mi SW 11.5 mph - N/A   Scattered Clouds
2:52 AM 69.1 °F 60.1 °F 73% 30.05 in 10.0 mi SW 12.7 mph - N/A   Overcast
3:52 AM 69.1 °F 60.1 °F 73% 30.05 in 10.0 mi SW 11.5 mph - N/A   Overcast
4:52 AM 69.1 °F 61.0 °F 75% 30.02 in 10.0 mi SSW 10.4 mph 19.6 mph N/A   Overcast
5:52 AM 68.0 °F 62.1 °F 81% 30.05 in 10.0 mi SW 9.2 mph - 0.00 in   Overcast
6:52 AM 66.9 °F 62.1 °F 84% 30.04 in 10.0 mi South 8.1 mph - N/A   Mostly Cloudy
7:52 AM 68.0 °F 63.0 °F 84% 30.02 in 10.0 mi SSW 4.6 mph - N/A   Mostly Cloudy
8:03 AM 68.0 °F 63.0 °F 84% 30.03 in 10.0 mi South 4.6 mph - N/A   Overcast
8:52 AM 69.1 °F 64.0 °F 84% 30.03 in 10.0 mi South 6.9 mph - N/A   Overcast
9:09 AM 69.1 °F 64.0 °F 84% 30.05 in 10.0 mi South 6.9 mph - N/A   Overcast
9:35 AM 70.0 °F 64.0 °F 81% 30.05 in 10.0 mi SW 8.1 mph 17.3 mph N/A   Overcast
9:52 AM 70.0 °F 64.0 °F 81% 30.05 in 10.0 mi SW 9.2 mph - N/A   Overcast
10:52 AM 72.0 °F 64.9 °F 78% 30.04 in 10.0 mi SW 8.1 mph - N/A   Overcast
11:15 AM 73.9 °F 64.9 °F 73% 30.04 in 10.0 mi SW 11.5 mph - N/A   Mostly Cloudy
11:52 AM 73.9 °F 64.9 °F 73% 30.02 in 10.0 mi SW 9.2 mph - N/A   Overcast
12:52 PM 75.0 °F 66.0 °F 73% 30.00 in 10.0 mi SW 5.8 mph - N/A   Overcast
1:52 PM 75.0 °F 66.0 °F 73% 29.99 in 10.0 mi SW 4.6 mph - N/A   Mostly Cloudy
2:52 PM 73.9 °F 66.0 °F 76% 29.97 in 10.0 mi SE 10.4 mph - N/A   Overcast
3:34 PM 73.0 °F 66.0 °F 79% 29.98 in 10.0 mi SE 10.4 mph - N/A   Overcast
3:52 PM 72.0 °F 64.9 °F 78% 29.97 in 10.0 mi SE 9.2 mph - N/A   Overcast
4:52 PM 71.1 °F 64.0 °F 78% 29.98 in 10.0 mi SE 6.9 mph - N/A   Overcast
5:42 PM 69.1 °F 66.0 °F 90% 30.00 in 2.0 mi SSE 6.9 mph - 0.00 in Rain Light Rain
5:52 PM 69.1 °F 64.9 °F 87% 29.99 in 3.0 mi South 5.8 mph - 0.00 in Rain Light Rain
6:26 PM 70.0 °F 64.9 °F 84% 30.01 in 7.0 mi South 5.8 mph - 0.00 in Rain Light Rain
6:52 PM 70.0 °F 64.9 °F 84% 30.00 in 8.0 mi South 5.8 mph - 0.01 in   Overcast
7:38 PM 69.1 °F 64.9 °F 87% 30.00 in 10.0 mi SSE 4.6 mph - N/A   Overcast
7:52 PM 69.1 °F 64.9 °F 87% 30.00 in 10.0 mi SSE 3.5 mph - N/A   Mostly Cloudy
8:25 PM 69.1 °F 64.9 °F 87% 30.01 in 10.0 mi Calm Calm - N/A   Overcast
8:52 PM 70.0 °F 66.0 °F 87% 30.01 in 9.0 mi Calm Calm - N/A   Overcast
9:52 PM 70.0 °F 66.0 °F 87% 30.01 in 10.0 mi Calm Calm - N/A   Overcast
10:52 PM 69.1 °F 66.0 °F 90% 30.02 in 8.0 mi Calm Calm - N/A   Mostly Cloudy
11:48 PM 68.0 °F 64.4 °F 88% 30.03 in 5.0 mi Calm Calm - N/A   Mostly Cloudy
11:52 PM 66.9 °F 64.9 °F 93% 30.02 in 5.0 mi Calm Calm - N/A   Mostly Cloudy